Time,TemperatureF,DewpointF,PressureIn,WindDirection,WindDirectionDegrees,WindSpeedMPH,WindSpeedGustMPH,Humidity,HourlyPrecipIn,Conditions,Clouds,dailyrainin,SoftwareType,DateUTC
2013-06-02 00:03:00,56.0,-99.9,30.36,NE,44,0.0,3.0,-999,-99.99,,,-99.99,,2013-06-02 04:03:00,
2013-06-02 00:13:00,56.0,-99.9,29.67,NE,44,0.0,3.0,-999,-99.99,,,-99.99,,2013-06-02 04:13:00,
2013-06-02 00:23:00,56.0,-99.9,29.67,NE,44,0.0,3.0,-999,-99.99,,,-99.99,,2013-06-02 04:23:00,
2013-06-02 00:33:00,56.0,-99.9,30.36,SE,145,7.0,8.0,-999,-99.99,,,-99.99,,2013-06-02 04:33:00,
2013-06-02 00:43:00,56.0,-99.9,29.67,SE,145,7.0,8.0,-999,-99.99,,,-99.99,,2013-06-02 04:43:00,
2013-06-02 00:53:00,56.0,-99.9,29.67,SE,145,7.0,8.0,-999,-99.99,,,-99.99,,2013-06-02 04:53:00,
2013-06-02 01:03:00,58.0,-99.9,30.38,South,181,9.0,15.0,-999,-99.99,,,-99.99,,2013-06-02 05:03:00,
2013-06-02 01:12:00,58.0,-99.9,29.69,South,181,9.0,15.0,-999,-99.99,,,-99.99,,2013-06-02 05:12:00,
2013-06-02 01:23:00,58.0,-99.9,30.38,South,181,9.0,15.0,-999,-99.99,,,-99.99,,2013-06-02 05:23:00,
2013-06-02 01:32:00,58.0,-99.9,29.69,South,181,9.0,15.0,-999,-99.99,,,-99.99,,2013-06-02 05:32:00,
2013-06-02 01:42:00,58.0,-99.9,29.69,South,181,9.0,15.0,-999,-99.99,,,-99.99,,2013-06-02 05:42:00,
2013-06-02 01:52:00,58.0,-99.9,29.69,South,181,9.0,15.0,-999,-99.99,,,-99.99,,2013-06-02 05:52:00,
2013-06-02 02:01:00,56.0,-99.9,30.37,NW,312,14.0,19.0,-999,-99.99,,,-99.99,,2013-06-02 06:01:00,
2013-06-02 02:12:00,56.0,-99.9,29.68,NW,312,14.0,19.0,-999,-99.99,,,-99.99,,2013-06-02 06:12:00,
2013-06-02 02:22:00,56.0,-99.9,30.37,NW,312,14.0,19.0,-999,-99.99,,,-99.99,,2013-06-02 06:22:00,
2013-06-02 02:32:00,56.0,-99.9,29.68,NW,312,14.0,19.0,-999,-99.99,,,-99.99,,2013-06-02 06:32:00,
2013-06-02 02:42:00,56.0,-99.9,30.37,NW,312,14.0,19.0,-999,-99.99,,,-99.99,,2013-06-02 06:42:00,
2013-06-02 02:52:00,56.0,-99.9,29.68,NW,312,14.0,19.0,-999,-99.99,,,-99.99,,2013-06-02 06:52:00,
2013-06-02 03:02:00,56.0,-99.9,29.68,NW,312,14.0,19.0,-999,-99.99,,,-99.99,,2013-06-02 07:02:00,
2013-06-02 03:11:00,47.0,-99.9,29.64,North,358,17.0,20.0,-999,-99.99,,,-99.99,,2013-06-02 07:11:00,
2013-06-02 03:22:00,47.0,-99.9,29.64,North,358,17.0,20.0,-999,-99.99,,,-99.99,,2013-06-02 07:22:00,
2013-06-02 03:32:00,47.0,-99.9,30.33,North,358,17.0,26.0,-999,-99.99,,,-99.99,,2013-06-02 07:32:00,
2013-06-02 03:42:00,47.0,-99.9,29.64,North,358,17.0,26.0,-999,-99.99,,,-99.99,,2013-06-02 07:42:00,
2013-06-02 03:52:00,47.0,-99.9,30.33,North,358,17.0,26.0,-999,-99.99,,,-99.99,,2013-06-02 07:52:00,
2013-06-02 04:02:00,45.0,-99.9,30.37,NW,322,14.0,19.0,-999,-99.99,,,-99.99,,2013-06-02 08:02:00,
2013-06-02 04:12:00,45.0,-99.9,29.68,NW,322,14.0,19.0,-999,-99.99,,,-99.99,,2013-06-02 08:12:00,
2013-06-02 04:22:00,45.0,-99.9,29.68,NW,322,14.0,19.0,-999,-99.99,,,-99.99,,2013-06-02 08:22:00,
2013-06-02 04:32:00,45.0,-99.9,29.68,NW,322,14.0,28.0,-999,-99.99,,,-99.99,,2013-06-02 08:32:00,
2013-06-02 04:40:00,44.0,-99.9,29.70,NW,310,14.0,20.0,-999,-99.99,,,-99.99,,2013-06-02 08:40:00,
2013-06-02 04:42:00,45.0,-99.9,29.68,NW,322,14.0,28.0,-999,-99.99,,,-99.99,,2013-06-02 08:42:00,
2013-06-02 04:52:00,45.0,-99.9,29.68,NW,322,14.0,28.0,-999,-99.99,,,-99.99,,2013-06-02 08:52:00,
2013-06-02 05:02:00,44.0,-99.9,30.39,NW,310,14.0,20.0,-999,-99.99,,,-99.99,,2013-06-02 09:02:00,
2013-06-02 05:11:00,44.0,-99.9,29.70,NW,310,14.0,20.0,-999,-99.99,,,-99.99,,2013-06-02 09:11:00,
2013-06-02 05:22:00,44.0,-99.9,29.70,NW,310,14.0,20.0,-999,-99.99,,,-99.99,,2013-06-02 09:22:00,
2013-06-02 05:33:00,44.0,-99.9,29.70,NW,310,14.0,20.0,-999,-99.99,,,-99.99,,2013-06-02 09:33:00,
2013-06-02 05:40:00,43.0,-99.9,29.71,NW,320,17.0,21.0,-999,-99.99,,,-99.99,,2013-06-02 09:40:00,
2013-06-02 06:03:00,43.0,-99.9,30.40,NW,320,17.0,21.0,-999,-99.99,,,-99.99,,2013-06-02 10:03:00,
2013-06-02 06:13:00,43.0,-99.9,29.71,NW,320,17.0,21.0,-999,-99.99,,,-99.99,,2013-06-02 10:13:00,
2013-06-02 06:23:00,43.0,-99.9,29.71,NW,320,17.0,21.0,-999,-99.99,,,-99.99,,2013-06-02 10:23:00,
2013-06-02 06:33:00,43.0,-99.9,29.71,NW,320,17.0,21.0,-999,-99.99,,,-99.99,,2013-06-02 10:33:00,
2013-06-02 07:02:00,43.0,-99.9,30.43,NW,307,15.0,19.0,-999,-99.99,,,-99.99,,2013-06-02 11:02:00,
2013-06-02 07:12:00,43.0,-99.9,29.74,NW,307,15.0,19.0,-999,-99.99,,,-99.99,,2013-06-02 11:12:00,
2013-06-02 07:22:00,43.0,-99.9,29.74,NW,307,15.0,19.0,-999,-99.99,,,-99.99,,2013-06-02 11:22:00,
2013-06-02 07:32:00,43.0,-99.9,29.74,NW,307,15.0,23.0,-999,-99.99,,,-99.99,,2013-06-02 11:32:00,
2013-06-02 07:40:00,43.0,-99.9,29.77,NW,306,18.0,22.0,-999,-99.99,,,-99.99,,2013-06-02 11:40:00,
2013-06-02 07:42:00,43.0,-99.9,30.43,NW,307,15.0,23.0,-999,-99.99,,,-99.99,,2013-06-02 11:42:00,
2013-06-02 07:52:00,43.0,-99.9,29.74,NW,307,15.0,23.0,-999,-99.99,,,-99.99,,2013-06-02 11:52:00,
2013-06-02 08:02:00,43.0,-99.9,30.46,NW,306,18.0,22.0,-999,-99.99,,,-99.99,,2013-06-02 12:02:00,
2013-06-02 08:11:00,43.0,-99.9,29.77,NW,306,18.0,22.0,-999,-99.99,,,-99.99,,2013-06-02 12:11:00,
2013-06-02 08:22:00,43.0,-99.9,29.77,NW,306,18.0,22.0,-999,-99.99,,,-99.99,,2013-06-02 12:22:00,
2013-06-02 08:32:00,43.0,-99.9,29.77,NW,306,18.0,22.0,-999,-99.99,,,-99.99,,2013-06-02 12:32:00,
2013-06-02 08:40:00,42.0,-99.9,29.81,NW,305,19.0,23.0,-999,-99.99,,,-99.99,,2013-06-02 12:40:00,
2013-06-02 09:01:00,42.0,-99.9,30.50,NW,305,19.0,23.0,-999,-99.99,,,-99.99,,2013-06-02 13:01:00,
2013-06-02 09:12:00,42.0,-99.9,29.81,NW,305,19.0,23.0,-999,-99.99,,,-99.99,,2013-06-02 13:12:00,
2013-06-02 09:22:00,42.0,-99.9,29.81,NW,305,19.0,23.0,-999,-99.99,,,-99.99,,2013-06-02 13:22:00,
2013-06-02 09:32:00,42.0,-99.9,29.81,NW,305,19.0,23.0,-999,-99.99,,,-99.99,,2013-06-02 13:32:00,
2013-06-02 09:52:00,43.0,-99.9,30.53,NW,310,21.0,29.0,-999,-99.99,,,-99.99,,2013-06-02 13:52:00,
2013-06-02 10:02:00,43.0,-99.9,29.84,NW,310,21.0,29.0,-999,-99.99,,,-99.99,,2013-06-02 14:02:00,
2013-06-02 10:11:00,43.0,-99.9,29.84,NW,310,21.0,29.0,-999,-99.99,,,-99.99,,2013-06-02 14:11:00,
2013-06-02 10:22:00,43.0,-99.9,30.54,NW,312,21.0,0.0,-999,-99.99,,,-99.99,,2013-06-02 14:22:00,
2013-06-02 10:32:00,43.0,-99.9,29.85,NW,312,21.0,0.0,-999,-99.99,,,-99.99,,2013-06-02 14:32:00,
2013-06-02 10:40:00,43.0,-99.9,29.86,NW,307,21.0,27.0,-999,-99.99,,,-99.99,,2013-06-02 14:40:00,
2013-06-02 10:42:00,43.0,-99.9,29.85,NW,312,21.0,0.0,-999,-99.99,,,-99.99,,2013-06-02 14:42:00,
2013-06-02 10:52:00,43.0,-99.9,29.85,NW,312,21.0,0.0,-999,-99.99,,,-99.99,,2013-06-02 14:52:00,
2013-06-02 11:01:00,43.0,-99.9,30.55,NW,307,21.0,27.0,-999,-99.99,,,-99.99,,2013-06-02 15:01:00,
2013-06-02 11:11:00,43.0,-99.9,29.86,NW,307,21.0,27.0,-999,-99.99,,,-99.99,,2013-06-02 15:11:00,
2013-06-02 11:22:00,43.0,-99.9,29.86,NW,307,21.0,27.0,-999,-99.99,,,-99.99,,2013-06-02 15:22:00,
2013-06-02 11:33:00,43.0,-99.9,29.86,NW,307,21.0,27.0,-999,-99.99,,,-99.99,,2013-06-02 15:33:00,
2013-06-02 12:03:00,44.0,-99.9,30.60,NW,310,18.0,21.0,-999,-99.99,,,-99.99,,2013-06-02 16:03:00,
2013-06-02 12:13:00,44.0,-99.9,29.90,NW,310,18.0,21.0,-999,-99.99,,,-99.99,,2013-06-02 16:13:00,
2013-06-02 12:23:00,44.0,-99.9,29.91,WNW,303,19.0,27.0,-999,-99.99,,,-99.99,,2013-06-02 16:23:00,
2013-06-02 12:33:00,44.0,-99.9,30.61,WNW,303,19.0,27.0,-999,-99.99,,,-99.99,,2013-06-02 16:33:00,
2013-06-02 12:42:00,44.0,-99.9,30.61,WNW,303,19.0,27.0,-999,-99.99,,,-99.99,,2013-06-02 16:42:00,
2013-06-02 12:53:00,44.0,-99.9,29.91,WNW,303,19.0,27.0,-999,-99.99,,,-99.99,,2013-06-02 16:53:00,
2013-06-02 13:02:00,44.0,-99.9,30.62,WNW,302,19.0,22.0,-999,-99.99,,,-99.99,,2013-06-02 17:02:00,
2013-06-02 13:12:00,44.0,-99.9,29.92,WNW,302,19.0,22.0,-999,-99.99,,,-99.99,,2013-06-02 17:12:00,
2013-06-02 13:23:00,44.0,-99.9,29.92,WNW,302,19.0,22.0,-999,-99.99,,,-99.99,,2013-06-02 17:23:00,
2013-06-02 13:33:00,44.0,-99.9,29.93,WNW,294,18.0,24.0,-999,-99.99,,,-99.99,,2013-06-02 17:33:00,
2013-06-02 13:42:00,44.0,-99.9,29.93,WNW,294,18.0,24.0,-999,-99.99,,,-99.99,,2013-06-02 17:42:00,
2013-06-02 13:52:00,44.0,-99.9,29.93,WNW,294,18.0,24.0,-999,-99.99,,,-99.99,,2013-06-02 17:52:00,
2013-06-02 14:02:00,47.0,-99.9,30.64,NW,310,20.0,24.0,-999,-99.99,,,-99.99,,2013-06-02 18:02:00,
2013-06-02 14:11:00,47.0,-99.9,29.94,NW,310,20.0,24.0,-999,-99.99,,,-99.99,,2013-06-02 18:11:00,
2013-06-02 14:22:00,47.0,-99.9,30.65,NW,310,18.0,25.0,-999,-99.99,,,-99.99,,2013-06-02 18:22:00,
2013-06-02 14:32:00,47.0,-99.9,29.95,NW,310,18.0,25.0,-999,-99.99,,,-99.99,,2013-06-02 18:32:00,
2013-06-02 14:40:00,47.0,-99.9,29.97,WNW,300,19.0,22.0,-999,-99.99,,,-99.99,,2013-06-02 18:40:00,
2013-06-02 14:42:00,47.0,-99.9,29.95,NW,310,18.0,25.0,-999,-99.99,,,-99.99,,2013-06-02 18:42:00,
2013-06-02 14:52:00,47.0,-99.9,29.95,NW,310,18.0,25.0,-999,-99.99,,,-99.99,,2013-06-02 18:52:00,
2013-06-02 15:02:00,47.0,-99.9,30.67,WNW,300,19.0,22.0,-999,-99.99,,,-99.99,,2013-06-02 19:02:00,
2013-06-02 15:11:00,47.0,-99.9,29.97,WNW,300,19.0,22.0,-999,-99.99,,,-99.99,,2013-06-02 19:11:00,
2013-06-02 15:22:00,47.0,-99.9,29.97,WNW,300,19.0,22.0,-999,-99.99,,,-99.99,,2013-06-02 19:22:00,
2013-06-02 15:32:00,47.0,-99.9,29.97,WNW,300,19.0,22.0,-999,-99.99,,,-99.99,,2013-06-02 19:32:00,
2013-06-02 15:40:00,47.0,-99.9,29.99,NW,304,16.0,18.0,-999,-99.99,,,-99.99,,2013-06-02 19:40:00,
2013-06-02 16:02:00,47.0,-99.9,30.69,NW,304,16.0,18.0,-999,-99.99,,,-99.99,,2013-06-02 20:02:00,
2013-06-02 16:11:00,47.0,-99.9,29.99,NW,304,16.0,18.0,-999,-99.99,,,-99.99,,2013-06-02 20:11:00,
2013-06-02 16:22:00,47.0,-99.9,29.99,NW,304,16.0,18.0,-999,-99.99,,,-99.99,,2013-06-02 20:22:00,
2013-06-02 16:32:00,47.0,-99.9,29.99,NW,304,16.0,18.0,-999,-99.99,,,-99.99,,2013-06-02 20:32:00,
2013-06-02 16:40:00,49.0,-99.9,29.99,NNW,331,13.0,17.0,-999,-99.99,,,-99.99,,2013-06-02 20:40:00,
2013-06-02 17:02:00,49.0,-99.9,30.69,NNW,331,13.0,17.0,-999,-99.99,,,-99.99,,2013-06-02 21:02:00,
2013-06-02 17:12:00,49.0,-99.9,29.99,NNW,331,13.0,17.0,-999,-99.99,,,-99.99,,2013-06-02 21:12:00,
2013-06-02 17:22:00,49.0,-99.9,29.99,NNW,331,13.0,17.0,-999,-99.99,,,-99.99,,2013-06-02 21:22:00,
2013-06-02 17:33:00,49.0,-99.9,29.99,NNW,331,13.0,17.0,-999,-99.99,,,-99.99,,2013-06-02 21:33:00,
2013-06-02 17:40:00,47.0,-99.9,30.01,NNW,330,12.0,14.0,-999,-99.99,,,-99.99,,2013-06-02 21:40:00,
2013-06-02 18:03:00,47.0,-99.9,30.71,NNW,330,12.0,14.0,-999,-99.99,,,-99.99,,2013-06-02 22:03:00,
2013-06-02 18:12:00,47.0,-99.9,30.01,NNW,330,12.0,14.0,-999,-99.99,,,-99.99,,2013-06-02 22:12:00,
2013-06-02 18:23:00,47.0,-99.9,30.01,NNW,330,12.0,14.0,-999,-99.99,,,-99.99,,2013-06-02 22:23:00,
2013-06-02 18:33:00,47.0,-99.9,30.01,NNW,330,12.0,14.0,-999,-99.99,,,-99.99,,2013-06-02 22:33:00,
2013-06-02 18:40:00,48.0,-99.9,30.02,NNW,347,12.0,14.0,-999,-99.99,,,-99.99,,2013-06-02 22:40:00,
2013-06-02 19:12:00,48.0,-99.9,30.02,NNW,347,12.0,14.0,-999,-99.99,,,-99.99,,2013-06-02 23:12:00,
2013-06-02 19:22:00,48.0,-99.9,30.02,NNW,347,12.0,14.0,-999,-99.99,,,-99.99,,2013-06-02 23:22:00,
2013-06-02 19:32:00,48.0,-99.9,30.02,NNW,347,12.0,14.0,-999,-99.99,,,-99.99,,2013-06-02 23:32:00,
2013-06-02 19:40:00,49.0,-99.9,30.02,NNW,327,7.0,10.0,-999,-99.99,,,-99.99,,2013-06-02 23:40:00,
2013-06-02 20:02:00,49.0,-99.9,30.72,NNW,327,7.0,10.0,-999,-99.99,,,-99.99,,2013-06-03 00:02:00,
2013-06-02 20:12:00,49.0,-99.9,30.02,NNW,327,7.0,10.0,-999,-99.99,,,-99.99,,2013-06-03 00:12:00,
2013-06-02 20:22:00,49.0,-99.9,30.02,NNW,327,7.0,10.0,-999,-99.99,,,-99.99,,2013-06-03 00:22:00,
2013-06-02 20:32:00,49.0,-99.9,30.02,NNW,327,7.0,10.0,-999,-99.99,,,-99.99,,2013-06-03 00:32:00,
2013-06-02 20:40:00,48.0,-99.9,30.03,NNW,345,5.0,7.0,-999,-99.99,,,-99.99,,2013-06-03 00:40:00,
2013-06-02 21:01:00,48.0,-99.9,30.73,NNW,345,5.0,7.0,-999,-99.99,,,-99.99,,2013-06-03 01:01:00,
2013-06-02 21:11:00,48.0,-99.9,30.03,NNW,345,5.0,7.0,-999,-99.99,,,-99.99,,2013-06-03 01:11:00,
2013-06-02 21:22:00,48.0,-99.9,30.03,NNW,345,5.0,7.0,-999,-99.99,,,-99.99,,2013-06-03 01:22:00,
2013-06-02 21:32:00,48.0,-99.9,30.03,NNW,345,5.0,7.0,-999,-99.99,,,-99.99,,2013-06-03 01:32:00,
2013-06-02 22:02:00,44.0,-99.9,30.73,NW,312,4.0,7.0,-999,-99.99,,,-99.99,,2013-06-03 02:02:00,
2013-06-02 22:12:00,44.0,-99.9,30.03,NW,312,4.0,7.0,-999,-99.99,,,-99.99,,2013-06-03 02:12:00,
2013-06-02 22:22:00,44.0,-99.9,30.74,WNW,290,6.0,23.0,-999,-99.99,,,-99.99,,2013-06-03 02:22:00,
2013-06-02 22:32:00,44.0,-99.9,30.04,WNW,290,6.0,23.0,-999,-99.99,,,-99.99,,2013-06-03 02:32:00,
2013-06-02 22:40:00,43.0,-99.9,30.04,NNW,334,4.0,5.0,-999,-99.99,,,-99.99,,2013-06-03 02:40:00,
2013-06-02 22:42:00,44.0,-99.9,30.04,WNW,290,6.0,23.0,-999,-99.99,,,-99.99,,2013-06-03 02:42:00,
2013-06-02 22:52:00,44.0,-99.9,30.04,WNW,290,6.0,23.0,-999,-99.99,,,-99.99,,2013-06-03 02:52:00,
2013-06-02 23:02:00,43.0,-99.9,30.74,NNW,334,4.0,5.0,-999,-99.99,,,-99.99,,2013-06-03 03:02:00,
2013-06-02 23:12:00,43.0,-99.9,30.04,NNW,334,4.0,5.0,-999,-99.99,,,-99.99,,2013-06-03 03:12:00,
2013-06-02 23:22:00,43.0,-99.9,30.04,NNW,334,4.0,5.0,-999,-99.99,,,-99.99,,2013-06-03 03:22:00,
2013-06-02 23:33:00,43.0,-99.9,30.04,NNW,334,4.0,5.0,-999,-99.99,,,-99.99,,2013-06-03 03:33:00,